Location: El Centro
(32.7920°N, 115.5620°W)
Time: 03:51:08
(UTC-07:00)

Hamsat - Visible Passes

Search period start: 31 August 2015 00:00
Search period end: 10 September 2015 00:00
Orbit: 588 x 623 km, 97.6° (Epoch: 30 August)

Date Brightness Start Highest point End Pass type
(mag) Time Alt. Az. Time Alt. Az. Time Alt. Az.
31 Aug ? 05:25:20 10° NNE 05:29:15 41° E 05:33:12 10° S visible
01 Sep ? 05:37:55 10° NNE 05:42:03 61° E 05:46:09 10° S visible
02 Sep ? 05:50:38 10° NNE 05:54:48 89° WNW 05:58:57 10° SSW visible
04 Sep ? 04:42:45 10° ENE 04:44:07 12° E 04:45:45 10° ESE visible
05 Sep ? 04:54:21 10° NE 04:57:01 17° E 04:59:50 10° SE visible
06 Sep ? 05:06:30 10° NE 05:09:52 24° E 05:13:20 10° SSE visible
07 Sep ? 05:18:53 10° NNE 05:22:41 35° E 05:26:32 10° SSE visible
08 Sep ? 05:31:25 10° NNE 05:35:29 51° E 05:39:33 10° S visible
09 Sep ? 05:44:04 10° NNE 05:48:14 77° ESE 05:52:24 10° S visible
